[[{"header":{"parameterUnit":"m.s-1","parameterCategory":1,"la1":30.2991,"la2":30.254,"lo1":-89.0895,"lo2":-89.0444,"dy":0.0017,"dx":0.0017,"nx":28,"ny":28,"refTime":"2024-10-15T09:00:00:Z","depth":0,"parameterNumber":2,"parameterNumberName":"U-component_of_WINDS"},"data":[0,0,0,0,0,0,0,0,0,0,0,0,0,0,0,0,0,0,0,0,0,0,0,0,0,0,0,0,0,0,0,0,0,0,0,0,0,0,0,0,0,0,0,0,0,0,0,0,0,0,0,0,0,0,0,0,0,0,-3.335,-3.335,0,-3.3299,-3.3299,-3.3298,-3.3113,-3.3108,-3.3104,-3.31,-3.3053,-3.3055,-3.3058,0,0,0,0,0,0,0,0,0,0,0,0,0,-3.3291,-3.3293,-3.335,-3.3349,-3.3349,-3.3299,-3.3299,-3.3298,-3.3113,-3.3108,-3.3103,-3.3098,-3.3052,-3.3055,-3.3058,0,0,0,0,0,0,0,0,0,0,0,0,0,-3.3287,-3.3294,-3.335,-3.3251,-3.3241,-3.33,-3.3299,-3.3298,-3.3114,-3.3108,-3.3102,-3.3096,-3.3051,-3.3055,-3.3059,-3.321,0,0,-3.3071,-3.3073,0,0,0,0,0,0,0,0,-3.3287,-3.3289,-3.3266,-3.3258,-3.3247,-3.3206,-3.326,-3.3269,-3.3116,-3.3163,-3.31,-3.3093,-3.3109,-3.3108,-3.3112,-3.3208,-3.3206,-3.3071,-3.3074,-3.3075,-3.3077,0,0,0,0,0,0,0,-3.3288,-3.329,-3.333,-3.3266,-3.3254,-3.321,-3.3202,-3.3261,-3.3172,-3.3158,-3.3144,-3.3141,-3.3103,-3.3109,-3.311,-3.3205,-3.3071,-3.3075,-3.3077,-3.3079,-3.3423,-3.3429,0,0,0,0,0,0,-3.3301,-3.3292,-3.3332,-3.3328,-3.3252,-3.3216,-3.3207,-3.3225,-3.3171,-3.3157,-3.3146,-3.3132,-3.3105,-3.3105,-3.3108,-3.328,-3.3075,-3.3079,-3.3081,-3.3416,-3.3424,-3.3431,0,0,0,0,0,0,-3.3301,-3.3307,-3.3334,-3.3306,-3.3306,-3.3224,-3.3246,-3.3228,-3.3234,-3.3162,-3.3146,-3.3169,-3.31,-3.3102,-3.3186,-3.3276,-3.3081,-3.3085,-3.3408,-3.3419,-3.3428,-3.3628,0,0,0,0,0,0,-3.33,-3.3308,-3.3364,-3.3309,-3.3308,-3.3412,-3.3251,-3.3231,-3.3241,-3.3222,-3.3179,-3.3165,-3.3095,-3.3181,-3.319,-3.3278,-3.3088,-3.34,-3.3413,-3.3425,-3.3613,-3.3644,-3.367,0,0,0,0,0,-3.3299,-3.3423,-3.3367,-3.3373,-3.3376,-3.3418,-3.3417,-3.3333,-3.3249,-3.3304,-3.3259,-3.3167,-3.3266,-3.3191,-3.3199,-3.329,-3.3393,-3.3409,-3.3424,-3.36,-3.3638,-3.367,0,0,0,0,0,0,-3.3492,-3.3414,-3.3351,-3.3462,-3.3448,-3.3386,-3.3454,-3.3376,-3.3386,-3.3368,-3.3264,-3.3256,-3.3355,-3.3331,-3.325,-3.3434,-3.3314,-3.3332,-3.3445,-3.3481,-3.3509,-3.3511,-3.3091,0,0,0,0,0,-3.3548,-3.3586,-3.3517,-3.3621,-3.3617,-3.3538,-3.3552,-3.3488,-3.347,-3.3463,-3.3423,-3.341,-3.3438,-3.3458,-3.348,-3.361,-3.3597,-3.3677,-3.3705,-3.3729,-3.3745,-3.3811,-3.3845,-3.3481,-3.3481,-3.3481,0,0,-3.3663,-3.3625,-3.3656,-3.3659,-3.364,-3.3683,-3.3533,-3.3586,-3.3617,-3.3472,-3.3547,-3.3518,-3.3497,-3.3604,-3.3649,-3.3587,-3.3843,-3.3748,-3.3768,-3.377,-3.383,-3.3864,-3.3895,-3.3491,-3.349,-3.3488,0,0,-3.3893,-3.3869,-3.3952,-3.3937,-3.391,-3.3856,-3.3877,-3.3827,-3.3802,-3.3876,-3.3768,-3.3805,-3.3855,-3.3843,-3.3845,-3.4073,-3.3988,-3.4083,-3.4231,-3.4297,-3.4326,-3.435,-3.443,-3.446,-3.41,-3.41,-3.41,0,-3.404,-3.4099,-3.4006,-3.4064,-3.4069,-3.3939,-3.4022,-3.4012,-3.3996,-3.4002,-3.3933,-3.3992,-3.3969,-3.4071,-3.4127,-3.4133,-3.4153,-3.4086,-3.4329,-3.4353,-3.4375,-3.4449,-3.448,-3.4112,-3.411,-3.4109,-3.4108,0,-3.4279,-3.4322,-3.4393,-3.4377,-3.439,-3.4462,-3.4381,-3.4406,-3.4342,-3.4296,-3.4374,-3.4341,-3.4353,-3.4374,-3.4312,-3.4468,-3.443,-3.4347,-3.4223,-3.4422,-3.4491,-3.4519,-3.4128,-3.4124,-3.412,-3.4118,0,0,-3.4628,-3.4561,-3.4588,-3.4579,-3.454,-3.4572,-3.4639,-3.4649,-3.4672,-3.4666,-3.4718,-3.4764,-3.4687,-3.4688,-3.4625,-3.4683,-3.4864,-3.4592,-3.459,-3.4642,-3.5032,-3.5092,-3.5127,-3.4809,-3.4814,-3.4818,-3.5033,0,-3.4846,-3.4952,-3.4871,-3.4992,-3.5031,-3.4908,-3.4966,-3.495,-3.491,-3.4938,-3.4894,-3.4927,-3.4823,-3.4823,-3.4875,-3.4831,-3.494,-3.4815,-3.4857,-3.4859,-3.4863,-3.5163,-3.5227,-3.5431,-3.5059,-3.5064,-3.5067,0,-3.5113,-3.5116,-3.5241,-3.5193,-3.5207,-3.526,-3.5262,-3.5291,-3.527,-3.5237,-3.524,-3.5161,-3.5224,-3.5105,-3.519,-3.5106,-3.512,-3.5101,-3.5107,-3.5105,-3.4973,-3.5167,-3.5494,-3.5524,-3.5109,-3.5105,-3.5102,0,-3.5352,-3.5388,-3.5467,-3.5463,-3.5411,-3.5451,-3.5431,-3.5404,-3.5416,-3.542,-3.5426,-3.5439,-3.5445,-3.5457,-3.5384,-3.5305,-3.5479,-3.5354,-3.5452,-3.5454,-3.5492,-3.549,-3.5823,-3.5506,-3.5505,-3.5505,-3.5504,0,-3.5601,-3.5682,-3.5573,-3.5621,-3.5708,-3.5616,-3.5705,-3.5673,-3.5651,-3.5691,-3.5589,-3.5629,-3.5532,-3.5564,-3.5508,-3.5586,-3.5591,-3.5566,-3.5549,-3.5573,-3.5576,-3.5578,-3.5561,-3.5513,-3.5511,-3.551,-3.5508,0,-3.5881,-3.5812,-3.5889,-3.5833,-3.5821,-3.5888,-3.584,-3.5883,-3.5837,-3.589,-3.5897,-3.5825,-3.5857,-3.5786,-3.5809,-3.5771,-3.5882,-3.5845,-3.5888,-3.5876,-3.5977,-3.5967,-3.632,-3.6361,-3.6022,-3.6025,-3.6028,0,-3.6043,-3.6102,-3.6052,-3.6071,-3.6056,-3.6089,-3.61,-3.6012,-3.6028,-3.601,-3.6055,-3.6078,-3.6091,-3.6148,-3.6098,-3.6115,-3.6075,-3.6198,-3.6077,-3.6099,-3.6074,-3.607,-3.6075,-3.6222,-3.6226,-3.623,-3.6233,0,-3.6337,-3.63,-3.6318,-3.6325,-3.6341,-3.6343,-3.6337,-3.636,-3.6266,-3.629,-3.6319,-3.633,-3.6352,-3.6376,-3.6382,-3.6363,-3.6283,-3.6272,-3.6294,-3.6318,-3.6339,-3.6326,-3.5953,-3.6263,-3.626,-3.6258,-3.6256,-3.6255,-3.6561,-3.6607,-3.6578,-3.6602,-3.6589,-3.6587,-3.6624,-3.6582,-3.6605,-3.6614,-3.6563,-3.6604,-3.6583,-3.6582,-3.6572,-3.6604,-3.6549,-3.6583,-3.6591,-3.66,-3.6615,-3.6337,-3.6606,-3.6605,-3.6604,-3.6603,-3.6602,0,-3.6847,-3.6823,-3.6846,-3.6841,-3.686,-3.6783,-3.6773,-3.6795,-3.6832,-3.6819,-3.6833,-3.6869,-3.6892,-3.6845,-3.6861,-3.6895,-3.6859,-3.6902,-3.6897,-3.6894,-3.6665,-3.6642,-3.6931,-3.6931,-3.6931,-3.6931,-3.6931,-3.6931,-3.6997,-3.707,-3.703,-3.7097,-3.7072,-3.711,-3.7111,-3.7109,-3.7097,-3.714,-3.7158,-3.7127,-3.71,-3.7114,-3.7132,-3.7118,-3.7127,-3.7183,-3.7156,-3.6942,-3.691,-3.6879,-3.6857,-3.7187,-3.7187,-3.7381,-3.7383,-3.7384]},{"header":{"parameterUnit":"m.s-1","parameterCategory":1,"la1":30.2991,"la2":30.254,"lo1":-89.0895,"lo2":-89.0444,"dy":0.0017,"dx":0.0017,"nx":28,"ny":28,"refTime":"2024-10-15T09:00:00:Z","depth":0,"parameterNumber":3,"parameterNumberName":"V-component_of_WINDS"},"data":[0,0,0,0,0,0,0,0,0,0,0,0,0,0,0,0,0,0,0,0,0,0,0,0,0,0,0,0,0,0,0,0,0,0,0,0,0,0,0,0,0,0,0,0,0,0,0,0,0,0,0,0,0,0,0,0,0,0,-1.9794,-1.9795,0,-1.9851,-1.9851,-1.9852,-1.9839,-1.9838,-1.9837,-1.9836,-1.9893,-1.9895,-1.9898,0,0,0,0,0,0,0,0,0,0,0,0,0,-1.9671,-1.9673,-1.9794,-1.9795,-1.9795,-1.9851,-1.9852,-1.9852,-1.9839,-1.9838,-1.9837,-1.9835,-1.9892,-1.9895,-1.9898,0,0,0,0,0,0,0,0,0,0,0,0,0,-1.9726,-1.9674,-1.9794,-1.9796,-1.9796,-1.9851,-1.9852,-1.9852,-1.984,-1.9838,-1.9836,-1.9835,-1.9891,-1.9895,-1.9898,-1.9954,0,0,-1.991,-1.9911,0,0,0,0,0,0,0,0,-1.9723,-1.973,-1.9795,-1.9796,-1.9796,-1.9836,-1.9829,-1.9886,-1.984,-1.9823,-1.9836,-1.9834,-1.9875,-1.988,-1.9894,-1.9957,-1.9959,-1.991,-1.9912,-1.9914,-1.9915,0,0,0,0,0,0,0,-1.9719,-1.9728,-1.9816,-1.9795,-1.9797,-1.9793,-1.9799,-1.984,-1.9857,-1.9824,-1.9824,-1.9831,-1.9875,-1.9891,-1.9895,-1.996,-1.991,-1.9913,-1.9916,-1.9917,-2.0068,-2.007,0,0,0,0,0,0,-1.9715,-1.9725,-1.9815,-1.9818,-1.9755,-1.9796,-1.9803,-1.9825,-1.9857,-1.986,-1.9832,-1.983,-1.9885,-1.9891,-1.9897,-1.9963,-1.9914,-1.9918,-1.992,-2.0067,-2.0069,-2.0071,0,0,0,0,0,0,-1.9712,-1.9723,-1.9812,-1.9771,-1.9782,-1.98,-1.9825,-1.9827,-1.9842,-1.9863,-1.9865,-1.9845,-1.9884,-1.9892,-1.994,-1.9965,-1.9919,-1.9923,-2.0065,-2.0067,-2.007,-2.0096,0,0,0,0,0,0,-1.9709,-1.9722,-1.9744,-1.9772,-1.9785,-1.9854,-1.9827,-1.9829,-1.9849,-1.9847,-1.9875,-1.9878,-1.9883,-1.9934,-1.9943,-1.9969,-1.9926,-2.0062,-2.0066,-2.0069,-2.0093,-2.0099,-2.0105,0,0,0,0,0,-1.9704,-1.9749,-1.9745,-1.9756,-1.9813,-1.9856,-1.9863,-1.9868,-1.9851,-1.9873,-1.9886,-1.9877,-1.9961,-1.9939,-1.9949,-1.9977,-2.0061,-2.0065,-2.0069,-2.009,-2.0098,-2.0104,0,0,0,0,0,0,-1.9724,-1.9753,-1.9749,-1.9804,-1.9828,-1.9854,-1.9881,-1.9877,-1.9905,-1.9901,-1.9906,-1.9913,-1.9961,-1.9974,-1.9949,-2.0031,-2.0008,-2.0014,-2.0021,-2.0029,-2.0034,-2.003,-1.9929,0,0,0,0,0,-1.9735,-1.9768,-1.9792,-1.9838,-1.985,-1.9864,-1.9883,-1.9885,-1.9909,-1.9919,-1.9935,-1.9958,-1.9989,-2.001,-2.004,-2.0095,-2.01,-2.0119,-2.0125,-2.0129,-2.0134,-2.0163,-2.0171,-2.0084,-2.0084,-2.0084,0,0,-1.9757,-1.9777,-1.9798,-1.9842,-1.9861,-1.9894,-1.9872,-1.9909,-1.9933,-1.9924,-1.9969,-1.9982,-2.0008,-2.0059,-2.0083,-2.0072,-2.016,-2.0134,-2.0138,-2.014,-2.0167,-2.0176,-2.0183,-2.0086,-2.0086,-2.0085,0,0,-1.9815,-1.9834,-1.9874,-1.9893,-1.9921,-1.993,-1.9939,-1.9966,-1.9974,-2.002,-2.0013,-2.0042,-2.0096,-2.0114,-2.0131,-2.0194,-2.0187,-2.0204,-2.0234,-2.0261,-2.0268,-2.0274,-2.0295,-2.0303,-2.0209,-2.0209,-2.0209,0,-1.9839,-1.989,-1.9896,-1.9933,-1.9951,-1.9945,-1.9985,-2.0002,-2.0039,-2.0051,-2.0039,-2.0105,-2.0123,-2.0177,-2.0192,-2.0206,-2.0216,-2.02,-2.0267,-2.0273,-2.0279,-2.0299,-2.0307,-2.0211,-2.0211,-2.021,-2.021,0,-1.9918,-1.9953,-1.9982,-2.0017,-2.0039,-2.0078,-2.0088,-2.0109,-2.0109,-2.0119,-2.0164,-2.0185,-2.0218,-2.0231,-2.0231,-2.0285,-2.0277,-2.0266,-2.0242,-2.0289,-2.0308,-2.0316,-2.0213,-2.0213,-2.0212,-2.0212,0,0,-1.999,-2.0027,-2.0037,-2.0052,-2.0082,-2.0109,-2.0146,-2.0179,-2.0197,-2.0222,-2.0252,-2.0297,-2.0287,-2.0305,-2.0307,-2.0332,-2.0378,-2.0317,-2.0318,-2.0326,-2.0437,-2.0444,-2.0453,-2.0374,-2.0376,-2.0377,-2.0434,0,-2.0049,-2.0116,-2.0121,-2.018,-2.0211,-2.0205,-2.0237,-2.0258,-2.0268,-2.0295,-2.0306,-2.0337,-2.0321,-2.0332,-2.0356,-2.0368,-2.04,-2.0364,-2.0401,-2.0402,-2.0394,-2.0464,-2.0472,-2.0525,-2.0442,-2.0443,-2.0444,0,-2.0128,-2.0155,-2.0217,-2.0241,-2.0254,-2.0283,-2.0313,-2.034,-2.0363,-2.0368,-2.0388,-2.0387,-2.0424,-2.0399,-2.0449,-2.0424,-2.044,-2.0448,-2.045,-2.0453,-2.0425,-2.0467,-2.0542,-2.055,-2.0456,-2.0455,-2.0454,0,-2.0172,-2.0224,-2.0268,-2.0281,-2.0311,-2.0331,-2.0344,-2.0365,-2.0384,-2.041,-2.0422,-2.0451,-2.0467,-2.049,-2.0496,-2.0478,-2.0545,-2.0522,-2.0549,-2.0549,-2.0563,-2.0562,-2.064,-2.0575,-2.0575,-2.0575,-2.0575,0,-2.0237,-2.0275,-2.0288,-2.0315,-2.0356,-2.0361,-2.0402,-2.0414,-2.0433,-2.0461,-2.0457,-2.0484,-2.049,-2.0517,-2.0522,-2.0562,-2.057,-2.0574,-2.0574,-2.0574,-2.0573,-2.0583,-2.0579,-2.0577,-2.0576,-2.0576,-2.0576,0,-2.0294,-2.0304,-2.0351,-2.0374,-2.0381,-2.0411,-2.0431,-2.0455,-2.0464,-2.05,-2.0508,-2.0522,-2.0553,-2.0562,-2.0599,-2.0603,-2.0649,-2.0647,-2.0641,-2.0641,-2.0667,-2.0664,-2.0754,-2.0765,-2.0694,-2.0694,-2.0695,0,-2.0334,-2.0363,-2.039,-2.0408,-2.0422,-2.0452,-2.0471,-2.0477,-2.0497,-2.0525,-2.0546,-2.0577,-2.0602,-2.0652,-2.0665,-2.0694,-2.0691,-2.0721,-2.0695,-2.0693,-2.069,-2.0687,-2.069,-2.0725,-2.0726,-2.0727,-2.0727,0,-2.0404,-2.0408,-2.0435,-2.0464,-2.0487,-2.051,-2.0533,-2.0548,-2.0556,-2.0578,-2.0611,-2.063,-2.0668,-2.0699,-2.0727,-2.074,-2.0734,-2.0735,-2.0743,-2.0741,-2.0736,-2.0738,-2.0653,-2.0733,-2.0732,-2.0732,-2.0732,-2.0731,-2.0453,-2.0478,-2.05,-2.053,-2.0548,-2.0568,-2.0592,-2.0604,-2.0631,-2.0662,-2.0664,-2.0699,-2.072,-2.0757,-2.0771,-2.0798,-2.0789,-2.08,-2.0803,-2.0805,-2.0806,-2.0733,-2.0803,-2.0803,-2.0803,-2.0803,-2.0803,0,-2.0521,-2.0535,-2.0563,-2.0594,-2.0618,-2.0611,-2.0635,-2.0655,-2.0686,-2.0706,-2.073,-2.0766,-2.0796,-2.081,-2.0839,-2.0857,-2.0855,-2.0864,-2.0862,-2.0865,-2.0814,-2.0804,-2.0865,-2.0865,-2.0865,-2.0865,-2.0865,-2.0865,-2.056,-2.0601,-2.0606,-2.0655,-2.0668,-2.0702,-2.0716,-2.0735,-2.0751,-2.0791,-2.0815,-2.0825,-2.0842,-2.0872,-2.0898,-2.0901,-2.0911,-2.0921,-2.0923,-2.0875,-2.0869,-2.0863,-2.0853,-2.0924,-2.0924,-2.0972,-2.0973,-2.0973]}]]